Location: LDNL
(36.4545°S, 141.6685°E)
Time: 16:50:08
(UTC+10:00)

Courier 1B - Pass Details

Date: 12 August 2022
Orbit: 962 x 1209 km, 28.3° (Epoch: 25 September)

Event Time Altitude Azimuth Distance (km) Brightness Sun altitude
Exits shadow 05:20:05 22° 327° (NNW) 2,347 9.2 -24.5°
Maximum altitude 05:20:50 22° 335° (NNW) 2,325 9.2 -24.4°
Drops below altitude 10° 05:26:19 10° 22° (NNE) 3,037 10.3 -23.3°
Sets 05:29:46 0° 36° (NE) 3,952 11.2 -22.6°
